Home > Weather > Dover > Past weeks

Flag for USA Weather for the Past 2 Weeks in Dover, Delaware, USA

Now
50 °F

Light rain. More clouds than sun.


Feels Like: 45 °F
Forecast: 49 / 54 °F
Wind: 13 mph from Northeast

Location: Dover Air Force Base

Current Time: May 6, 2016 at 10:04:42 AM

Latest Report: May 6, 2016 at 9:03 AM


Visibility: 10 mi

Pressure: 29.64 "Hg

Humidity: 100%

Dew Point: 50 °F

Location of DoverLocation

Historic Weather in Dover — Graph

°F

Dover Temperature Yesterday

Maximum temperature yesterday: 54 °F (at 4:03 PM)
Minimum temperature yesterday: 48 °F (at 1:03 AM)
Average temperature yesterday: 51 °F

High & Low Weather Summary for the Past Weeks

 TemperatureHumidityPressure
High85 °F (Apr 26, 4:58 PM)100% (Apr 22, 9:58 PM)30.24 "Hg (Apr 22, 9:58 PM)
Low44 °F (Apr 24, 5:58 AM)27% (Apr 24, 2:58 PM)29.61 "Hg (May 5, 4:03 PM)
Average56 °F88%29.92 "Hg
* Reported Apr 21 8:58 AM — May 6 8:58 AM, Dover, Weather by CustomWeather, © 2016

Note: Actual official high and low records may vary slightly from our data, if they occured in-between our weather recording intervals... More about our weather records

Advertising

Dover Weather History for the Previous 24 Hours

Scroll right to see more
 ConditionsComfort  
Time TempWeatherWind HumidityBarometerVisibility
8:58 AM
Fri, May 6
49 °FLight rain. More clouds than sun.14 mph100%29.65 "Hg9 mi
7:58 AM49 °FLight rain. More clouds than sun.15 mph100%29.66 "Hg7 mi
6:58 AM49 °FRain. Fog.9 mph100%29.66 "Hg4 mi
5:58 AM49 °FRain. Fog.9 mph100%29.64 "Hg5 mi
4:58 AM49 °FRain. Fog.8 mph100%29.64 "Hg4 mi
4:04 AM50 °FLight rain. Partly cloudy.6 mph100%29.62 "Hg10 mi
3:03 AM50 °FClear.7 mph100%29.63 "Hg9 mi
2:58 AM50 °FLight rain. Passing clouds.8 mph100%29.64 "Hg8 mi
1:58 AM52 °FLight rain. Mostly cloudy.7 mph100%29.65 "Hg10 mi
12:58 AM52 °FOvercast.9 mph95%29.66 "Hg10 mi
11:58 PM
Thu, May 5
53 °FPassing clouds.8 mph94%29.66 "Hg10 mi
10:58 PM52 °FOvercast.5 mph97%29.66 "Hg10 mi
10:03 PM52 °FOvercast.7 mph100%29.66 "Hg10 mi
8:58 PM53 °FOvercast.5 mph95%29.65 "Hg10 mi
7:58 PM53 °FOvercast.3 mph92%29.63 "Hg10 mi
6:58 PM54 °FPartly sunny.7 mph89%29.62 "Hg10 mi
5:58 PM53 °FOvercast.7 mph89%29.63 "Hg10 mi
4:58 PM53 °FOvercast.12 mph92%29.62 "Hg10 mi
4:03 PM54 °FOvercast.13 mph94%29.61 "Hg10 mi
3:58 PM53 °FMore clouds than sun.10 mph95%29.62 "Hg10 mi
2:58 PM53 °FOvercast.12 mph92%29.63 "Hg10 mi
1:58 PM53 °FOvercast.9 mph91%29.64 "Hg10 mi
12:58 PM53 °FOvercast.10 mph94%29.64 "Hg10 mi
12:03 PM52 °FOvercast.10 mph94%29.66 "Hg10 mi
10:58 AM50 °FMostly cloudy.12 mph98%29.68 "Hg10 mi
Weather by CustomWeather, © 2016

See weather overviewHow to use our weather pages